Terminal Aerodrome Forecast
Issued by NWS

Home | Current Version | Previous Version | Text Only | Print | Product List | Glossary On
Versions: 1 2 3 4 5 6 7 8 9 10 11 12 13 14 15 16 17 18 19 20 21 22 23 24 25 26 27 28 29 30 31 32 33 34 35 36 37 38 39 40 41 42 43 44 45 46 47 48 49 50
000
FTUS43 KMKX 250125 AAA
TAFENW
TAF AMD
KENW 250125Z 2501/2524 28008KT P6SM BKN006 OVC010
      TEMPO 2501/2502 6SM -DZ BR OVC006
     FM250230 29010KT P6SM SCT008 OVC015
     FM251000 26011G18KT P6SM BKN020
     FM251100 26011KT P6SM BKN025
     FM251600 23013KT P6SM BKN060
     FM251800 22013G20KT P6SM SCT140=

USA.gov is the U.S. government's official web portal to all federal, state and local government web resources and services.